Weather History for 11518 - October, 2013

Change the Weather History Date:

Wednesday, October 23, 2013

  Actual Average Record
Temperature  
Mean Temperature 55 °F -  
Max Temperature 62 °F 46 °F - ()
Min Temperature 48 °F 34 °F - ()
Degree Days  
Heating Degree Days 10    
Growing Degree Days 5 (Base 50)    
Moisture  
Dew Point 52 °F    
Average Humidity 91    
Maximum Humidity 100    
Minimum Humidity 67    
Precipitation  
Precipitation 0.00 in 0.04 in - ()
Sea Level Pressure  
Sea Level Pressure 29.92 in    
Wind  
Wind Speed 5 mph ()    
Max Wind Speed 10 mph    
Max Gust Speed -    
Visibility 4.0 miles    
Events Fog , Rain    
T = Trace of Precipitation, MM = Missing Value Source: Averaged Metar Reports

Daily Weather History Graph

Daily Weather History Graph

Search for Another Location

Airport or City:

Trip Planner

Search our weather history database for the weather conditions in past years. The results will help you decide how hot, cold, wet, or windy it might be!

Date:

Astronomy

Oct. 23, 2013 Rise Set
Actual Time 7:37 AM CEST 5:55 PM CEST
Civil Twilight 7:04 AM CEST 6:28 PM CEST
Nautical Twilight 6:26 AM CEST 7:06 PM CEST
Astronomical Twilight 5:49 AM CEST 7:44 PM CEST
Moon 8:56 PM CEST (10/23) 11:57 AM CEST (10/23)
Length of Visible Light 11h 24m
Length of Day
10h 17m
Waning Gibbous, 81% of the Moon is Illuminated
Oct 23
Waning Gibbous
Oct 27
Last Quarter
Nov 3
New
Nov 10
First Quarter
Nov 17
Full

Hourly Weather History & Observations

Time (CEST) Temp. Dew Point Humidity Pressure Visibility Wind Dir Wind Speed Gust Speed Precip Events Conditions
12:00 AM 50.0 °F 46.4 °F 87% 29.95 in - East 4.6 mph - N/A   Clear
12:30 AM 51.8 °F 48.2 °F 88% 29.95 in - ESE 6.9 mph - N/A   Clear
1:00 AM 51.8 °F 48.2 °F 88% 29.95 in - ESE 5.8 mph - N/A   Clear
1:16 AM 51.8 °F 50.0 °F 94% 29.92 in 5.6 mi ESE 4.6 mph - N/A   Mostly Cloudy
1:30 AM 51.8 °F 50.0 °F 94% 29.92 in 5.0 mi ESE 3.5 mph - N/A   Mostly Cloudy
2:00 AM 49 °F 47 °F 92% 29.94 in 5 mi ESE 4.5 mph - -   Mist
2:00 AM 50.0 °F 48.2 °F 94% 29.92 in 5.0 mi East 3.5 mph - N/A   Scattered Clouds
2:30 AM 51.8 °F 50.0 °F 94% 29.92 in 4.3 mi East 3.5 mph - N/A   Mostly Cloudy
3:00 AM 50.0 °F 48.2 °F 94% 29.92 in 3.7 mi East 4.6 mph - N/A Fog Fog
3:30 AM 50.0 °F 48.2 °F 94% 29.92 in 3.1 mi East 4.6 mph - N/A Fog Fog
4:00 AM 51.8 °F 50.0 °F 94% 29.89 in 3.7 mi ESE 3.5 mph - N/A   Mostly Cloudy
4:30 AM 51.8 °F 51.8 °F 100% 29.89 in 3.7 mi East 3.5 mph - N/A   Mostly Cloudy
5:00 AM 51.8 °F 50.0 °F 94% 29.89 in 2.8 mi East 6.9 mph - N/A   Mostly Cloudy
5:05 AM 51.8 °F 50.0 °F 94% 29.89 in 1.9 mi East 8.1 mph - N/A   Mostly Cloudy
5:13 AM 50.0 °F 48.2 °F 94% 29.89 in 0.7 mi East 8.1 mph - N/A   Mostly Cloudy
5:21 AM 50.0 °F 50.0 °F 100% 29.89 in 0.5 mi East 5.8 mph - N/A Fog Fog
5:30 AM 51.8 °F 50.0 °F 94% 29.89 in 0.4 mi East 4.6 mph - N/A Fog Fog
5:48 AM 51.8 °F 51.8 °F 100% 29.89 in - East 4.6 mph - N/A Fog Fog
6:00 AM 51.8 °F 51.8 °F 100% 29.89 in 0.3 mi East 5.8 mph - N/A Fog Fog
6:30 AM 51.8 °F 51.8 °F 100% 29.89 in 0.3 mi East 4.6 mph - N/A Fog Fog
6:36 AM 51.8 °F 51.8 °F 100% 29.86 in 0.2 mi East 6.9 mph - N/A Fog Fog
7:00 AM 51.8 °F 51.8 °F 100% 29.86 in 0.3 mi East 5.8 mph - N/A Fog Fog
7:30 AM 51.8 °F 51.8 °F 100% 29.89 in 0.2 mi East 4.6 mph - N/A Fog Fog
8:00 AM 52 °F 51 °F 95% 29.90 in 0 mi 2.2 mph - - Fog Heavy Fog
8:00 AM 51.8 °F 51.8 °F 100% 29.89 in 0.2 mi Variable 2.3 mph - N/A Fog Fog
8:10 AM 51.8 °F 51.8 °F 100% 29.89 in 0.3 mi East 4.6 mph - N/A   Mostly Cloudy
8:14 AM 51.8 °F 51.8 °F 100% 29.89 in 0.6 mi East 3.5 mph - N/A Fog Patches of Fog
8:18 AM 51.8 °F 51.8 °F 100% 29.89 in 0.7 mi East 4.6 mph - N/A Fog Patches of Fog
8:21 AM 51.8 °F 51.8 °F 100% 29.89 in 0.9 mi ESE 4.6 mph - N/A Fog Mostly Cloudy
8:30 AM 51.8 °F 51.8 °F 100% 29.89 in 1.2 mi ESE 5.8 mph - N/A Fog Mostly Cloudy
8:39 AM 53.6 °F 51.8 °F 94% 29.89 in 1.6 mi ESE 5.8 mph - N/A   Mostly Cloudy
8:46 AM 53.6 °F 51.8 °F 94% 29.89 in 2.2 mi ESE 6.9 mph - N/A   Mostly Cloudy
9:00 AM 53.6 °F 53.6 °F 100% 29.89 in 2.5 mi ESE 6.9 mph - N/A   Mostly Cloudy
9:15 AM 53.6 °F 53.6 °F 100% 29.89 in 3.7 mi Variable 2.3 mph - N/A   Mostly Cloudy
9:30 AM 55.4 °F 53.6 °F 94% 29.89 in 3.7 mi Variable 2.3 mph - N/A   Mostly Cloudy
10:00 AM 55.4 °F 53.6 °F 94% 29.89 in 4.3 mi SE 6.9 mph - N/A   Mostly Cloudy
10:30 AM 57.2 °F 55.4 °F 94% 29.89 in 6.2 mi SSE 5.8 mph - N/A   Mostly Cloudy
11:00 AM 57.2 °F 53.6 °F 88% 29.89 in 6.2 mi WSW 4.6 mph - N/A   Mostly Cloudy
11:30 AM 59.0 °F 53.6 °F 82% 29.89 in 6.2 mi SW 6.9 mph - N/A   Mostly Cloudy
12:00 PM 59.0 °F 53.6 °F 82% 29.89 in 6.2 mi SW 4.6 mph - N/A   Mostly Cloudy
12:30 PM 59.0 °F 51.8 °F 77% 29.89 in 6.2 mi SSW 3.5 mph - N/A   Mostly Cloudy
1:00 PM 59.0 °F 53.6 °F 82% 29.89 in 6.2 mi Variable 2.3 mph - N/A   Mostly Cloudy
1:30 PM 60.8 °F 53.6 °F 77% 29.89 in 6.2 mi Variable 2.3 mph - N/A   Mostly Cloudy
2:00 PM 61 °F 53 °F 67% 29.89 in 16 mi South 2.2 mph - -   Partly Cloudy
2:00 PM 62.6 °F 53.6 °F 72% 29.89 in 6.2 mi Variable 2.3 mph - N/A   Mostly Cloudy
2:30 PM 60.8 °F 53.6 °F 77% 29.92 in 6.2 mi WSW 6.9 mph - N/A   Mostly Cloudy
3:00 PM 60.8 °F 53.6 °F 77% 29.92 in 6.2 mi WNW 5.8 mph - N/A   Scattered Clouds
3:30 PM 60.8 °F 53.6 °F 77% 29.92 in 6.2 mi West 3.5 mph - N/A   Partly Cloudy
4:00 PM 59.0 °F 55.4 °F 88% 29.92 in - WNW 5.8 mph - N/A   Clear
4:30 PM 59.0 °F 53.6 °F 82% 29.92 in - Variable 2.3 mph - N/A   Clear
5:01 PM 59.0 °F 53.6 °F 82% 29.95 in - SSW 5.8 mph - N/A   Clear
5:05 PM 57.2 °F 53.6 °F 88% 29.95 in 6.2 mi SSW 8.1 mph - N/A Rain Light Rain
5:30 PM 57.2 °F 53.6 °F 88% 29.92 in 6.2 mi SSW 8.1 mph - N/A Rain Light Rain
6:00 PM 57.2 °F 53.6 °F 88% 29.92 in 6.2 mi South 6.9 mph - N/A Rain Light Rain
6:30 PM 57.2 °F 53.6 °F 88% 29.95 in - South 9.2 mph - N/A   Clear
7:00 PM 57.2 °F 53.6 °F 88% 29.95 in - South 8.1 mph - N/A   Clear
7:30 PM 57.2 °F 53.6 °F 88% 29.95 in - South 8.1 mph - N/A   Clear
8:00 PM 57 °F 53 °F 82% 29.95 in 9 mi South 6.7 mph - - Rain Light Rain
8:00 PM 57.2 °F 53.6 °F 88% 29.95 in 6.2 mi South 8.1 mph - N/A Rain Light Rain
8:09 PM 57.2 °F 53.6 °F 88% 29.95 in - South 6.9 mph - N/A   Clear
8:25 PM 57.2 °F 53.6 °F 88% 29.95 in 6.2 mi South 5.8 mph - N/A Rain Light Rain
8:30 PM 57.2 °F 53.6 °F 88% 29.95 in 6.2 mi South 5.8 mph - N/A Rain Light Rain
9:00 PM 57.2 °F 53.6 °F 88% 29.95 in - South 6.9 mph - N/A   Clear
9:03 PM 57.2 °F 53.6 °F 88% 29.95 in 6.2 mi South 6.9 mph - N/A Rain Light Rain
9:30 PM 57.2 °F 53.6 °F 88% 29.98 in 6.2 mi SSW 5.8 mph - N/A Rain Light Rain
10:00 PM 55.4 °F 51.8 °F 88% 29.98 in - SSW 6.9 mph - N/A   Clear
10:30 PM 53.6 °F 51.8 °F 94% 29.98 in - SW 6.9 mph - N/A   Clear
11:00 PM 55.4 °F 51.8 °F 88% 29.98 in - SW 9.2 mph - N/A   Clear
11:30 PM 53.6 °F 51.8 °F 94% 29.98 in - WSW 10.4 mph - N/A   Clear